This demonstration page uses our WeatherBlox Daily Observations layout. Learn more.

Left ArrowRight Arrow

39.08367, -84.50855

Hourly Observations for December 8, 2017

Temp ( °F °C ) Dew Point ( °F °C ) Humidity (%) Winds ( mph kmh ) Pressure ( in mb ) Visibility ( mi km ) Precip ( " mm )
12:53 am 00:53 Clear 22 -5.6 15 -9.4 75 75 SW 3 6 30.22 1023 10 16 N/A
1:53 am 01:53 Clear 21 -6.1 15 -9.4 78 78 SSW 5 7 30.22 1023 10 16 N/A
2:53 am 02:53 Clear 21 -6.1 15 -9.4 78 78 SSW 6 9 30.22 1024 10 16 N/A
3:53 am 03:53 Clear 22 -5.6 17 -8.3 82 82 SSW 5 7 30.21 1023 10 16 N/A
4:53 am 04:53 Clear 20 -6.7 16 -8.9 85 85 SSW 7 11 30.19 1022 10 16 N/A
5:53 am 05:53 Clear 20 -6.7 16 -8.9 85 85 SSW 6 9 30.19 1022 10 16 N/A
6:53 am 06:53 Clear 19 -7.2 16 -8.9 88 88 SW 7 11 30.21 1023 10 16 N/A
7:53 am 07:53 Sunny 20 -6.7 16 -8.9 85 85 SSW 6 9 30.18 1022 10 16 N/A
8:53 am 08:53 Sunny 21 -6.1 17 -8.3 85 85 SW 7 11 30.22 1023 10 16 N/A
9:53 am 09:53 Sunny 23 -5 16 -8.9 74 74 SW 6 9 30.21 1023 10 16 N/A
10:53 am 10:53 Sunny 25 -3.9 16 -8.9 69 69 SSW 7 11 30.19 1022 10 16 N/A
11:53 am 11:53 Sunny 27 -2.8 12 -11.1 53 53 WSW 6 9 30.16 1021 10 16 N/A
12:53 pm 12:53 Sunny 29 -1.7 9 -12.8 43 43 SSW 10 17 30.15 1021 10 16 N/A
1:53 pm 13:53 Sunny 31 -0.6 9 -12.8 40 40 S 6 9 30.11 1020 10 16 N/A
2:53 pm 14:53 Sunny 32 undefined 10 -12.2 40 40 WSW 9 15 30.08 1019 10 16 N/A
3:53 pm 15:53 Sunny 31 -0.6 11 -11.7 43 43 SSW 7 11 30.07 1018 10 16 N/A
4:53 pm 16:53 Sunny 30 -1.1 13 -10.6 49 49 SSW 6 9 30.05 1018 10 16 N/A
5:53 pm 17:53 Clear 26 -3.3 12 -11.1 55 55 SSW 6 9 30.05 1018 10 16 N/A
6:53 pm 18:53 Clear 25 -3.9 13 -10.6 60 60 SW 5 7 30.05 1018 10 16 N/A
7:53 pm 19:53 Clear 22 -5.6 14 -10 71 71 S 7 11 30.06 1018 10 16 N/A
8:53 pm 20:53 Clear 26 -3.3 13 -10.6 57 57 SSW 3 6 30.05 1018 10 16 N/A
9:53 pm 21:53 Clear 23 -5 13 -10.6 65 65 N N/A 30.03 1017 10 16 N/A
10:53 pm 22:53 Clear 20 -6.7 13 -10.6 74 74 S 8 13 30.02 1017 10 16 N/A
11:53 pm 23:53 Clear 24 -4.4 13 -10.6 62 62 N N/A 30.01 1016 10 16 N/A

Powered by AerisWeather